When you browse on this site, cookies collect data to enhance your experience and personalize the content and advertising you see.
Visit our Privacy Policy to learn more. By continuing to use the site, you agree to this use of cookies and data.
  • In Czech Republic
  • List of Countries
  • For 7 days
  • Water Temperature
  • Weather Map
  • Weather Widgets
  • user-avatar
    Login

    Hourly Weather Jewłach

    Today, 4 April, Saturday

    Time Temperature Precipitation Wind Pressure Humidity
    00:00 +10°C° 0 mm 3 mps 760 mmHg 84%
    01:00 +10°C° 0 mm 3 mps 760 mmHg 84%
    02:00 +10°C° 0 mm 3 mps 760 mmHg 83%
    03:00 +11°C° 0 mm 3 mps 760 mmHg 85%
    04:00 +11°C° 0 mm 3 mps 760 mmHg 85%
    05:00 +12°C° 0 mm 2 mps 760 mmHg 84%
    06:00 +12°C° 0 mm 2 mps 760 mmHg 83%
    07:00 +12°C° 1.1 mm 2 mps 760 mmHg 86%
    08:00 +11°C° 1.1 mm 3 mps 761 mmHg 88%
    09:00 +11°C° 1.1 mm 3 mps 761 mmHg 90%
    10:00 +12°C° 2.5 mm 2 mps 761 mmHg 91%
    11:00 +12°C° 2.5 mm 2 mps 761 mmHg 92%
    12:00 +12°C° 2.5 mm 1 mps 762 mmHg 94%
    13:00 +12°C° 2.1 mm 1 mps 762 mmHg 93%
    14:00 +12°C° 2.1 mm 2 mps 762 mmHg 93%
    15:00 +11°C° 2.1 mm 3 mps 762 mmHg 92%
    16:00 +11°C° 0.3 mm 3 mps 763 mmHg 90%
    17:00 +12°C° 0.3 mm 2 mps 764 mmHg 88%
    18:00 +12°C° 0.3 mm 2 mps 764 mmHg 86%
    19:00 +12°C° 0 mm 2 mps 765 mmHg 86%
    20:00 +12°C° 0 mm 2 mps 765 mmHg 87%
    21:00 +11°C° 0 mm 1 mps 766 mmHg 87%
    22:00 +11°C° 0 mm 1 mps 766 mmHg 88%
    23:00 +11°C° 0 mm 1 mps 767 mmHg 89%

    Tomorrow, 5 April, Sunday

    Time Temperature Precipitation Wind Pressure Humidity
    00:00 +11°C° 0 mm 1 mps 767 mmHg 89%
    01:00 +10°C° 0 mm 1 mps 767 mmHg 90%
    02:00 +10°C° 0 mm 1 mps 767 mmHg 90%
    03:00 +10°C° 0 mm 1 mps 766 mmHg 91%
    04:00 +10°C° 0 mm 1 mps 766 mmHg 91%
    05:00 +10°C° 0 mm 1 mps 767 mmHg 91%
    06:00 +9°C° 0 mm 1 mps 767 mmHg 92%
    07:00 +11°C° 0 mm 1 mps 766 mmHg 85%
    08:00 +13°C° 0 mm 1 mps 766 mmHg 78%
    09:00 +14°C° 0 mm 1 mps 766 mmHg 71%
    10:00 +16°C° 0 mm 1 mps 765 mmHg 66%
    11:00 +18°C° 0 mm 1 mps 765 mmHg 61%
    12:00 +19°C° 0 mm 1 mps 764 mmHg 55%
    13:00 +20°C° 0 mm 1 mps 764 mmHg 53%
    14:00 +20°C° 0 mm 1 mps 763 mmHg 50%
    15:00 +21°C° 0 mm 1 mps 763 mmHg 48%
    16:00 +20°C° 0 mm 1 mps 763 mmHg 51%
    17:00 +20°C° 0 mm 1 mps 763 mmHg 54%
    18:00 +19°C° 0 mm 1 mps 762 mmHg 57%
    19:00 +18°C° 0 mm 1 mps 763 mmHg 59%
    20:00 +18°C° 0 mm 1 mps 763 mmHg 62%
    21:00 +15°C° 0 mm 0 mps 763 mmHg 64%
    22:00 +16°C° 0 mm 1 mps 763 mmHg 66%
    23:00 +15°C° 0 mm 2 mps 763 mmHg 69%

    Day after tomorrow, 6 April, Monday

    Time Temperature Precipitation Wind Pressure Humidity
    00:00 +14°C° 0 mm 3 mps 762 mmHg 71%
    01:00 +14°C° 0 mm 2 mps 762 mmHg 74%
    02:00 +13°C° 0 mm 2 mps 762 mmHg 76%
    03:00 +13°C° 0 mm 1 mps 762 mmHg 78%
    04:00 +13°C° 0 mm 1 mps 762 mmHg 78%
    05:00 +13°C° 0 mm 1 mps 763 mmHg 79%
    06:00 +11°C° 0 mm 0 mps 763 mmHg 79%
    07:00 +13°C° 0 mm 1 mps 763 mmHg 75%
    08:00 +14°C° 0 mm 1 mps 764 mmHg 70%
    09:00 +15°C° 0 mm 2 mps 764 mmHg 66%
    10:00 +15°C° 0.2 mm 2 mps 765 mmHg 68%
    11:00 +15°C° 0.2 mm 2 mps 765 mmHg 71%
    12:00 +14°C° 0.2 mm 3 mps 765 mmHg 73%
    13:00 +14°C° 0.5 mm 2 mps 765 mmHg 78%
    14:00 +14°C° 0.5 mm 2 mps 765 mmHg 82%
    15:00 +13°C° 0.5 mm 2 mps 765 mmHg 87%
    16:00 +12°C° 0.6 mm 3 mps 766 mmHg 86%
    17:00 +12°C° 0.6 mm 3 mps 766 mmHg 85%
    18:00 +12°C° 0.6 mm 4 mps 767 mmHg 85%
    19:00 +12°C° 0.1 mm 5 mps 767 mmHg 78%
    20:00 +10°C° 0.1 mm 7 mps 768 mmHg 71%
    21:00 +9°C° 0.1 mm 8 mps 768 mmHg 64%
    22:00 +7°C° 0.2 mm 8 mps 768 mmHg 70%
    23:00 +7°C° 0.2 mm 8 mps 769 mmHg 75%

    7 April, Tuesday

    Time Temperature Precipitation Wind Pressure Humidity
    00:00 +6°C° 0.2 mm 8 mps 769 mmHg 80%
    01:00 +6°C° 0.2 mm 8 mps 769 mmHg 82%
    02:00 +5°C° 0.2 mm 8 mps 769 mmHg 83%
    03:00 +5°C° 0.2 mm 8 mps 769 mmHg 85%
    04:00 +5°C° 0.1 mm 8 mps 769 mmHg 85%
    05:00 +4°C° 0.1 mm 7 mps 770 mmHg 86%
    06:00 +4°C° 0.1 mm 7 mps 770 mmHg 86%
    07:00 +4°C° 0.3 mm 6 mps 770 mmHg 88%
    08:00 +3°C° 0.3 mm 6 mps 770 mmHg 89%
    09:00 +3°C° 0.3 mm 6 mps 770 mmHg 90%
    10:00 +5°C° 0.2 mm 5 mps 770 mmHg 90%
    11:00 +5°C° 0.2 mm 5 mps 770 mmHg 89%
    12:00 +5°C° 0.2 mm 4 mps 770 mmHg 88%
    13:00 +5°C° 0.1 mm 4 mps 770 mmHg 87%
    14:00 +5°C° 0.1 mm 3 mps 770 mmHg 86%
    15:00 +5°C° 0.1 mm 3 mps 770 mmHg 85%
    16:00 +5°C° 0 mm 3 mps 770 mmHg 85%
    17:00 +5°C° 0 mm 3 mps 770 mmHg 85%
    18:00 +5°C° 0 mm 3 mps 770 mmHg 85%
    19:00 +5°C° 0 mm 3 mps 771 mmHg 85%
    20:00 +5°C° 0 mm 3 mps 771 mmHg 86%
    21:00 +5°C° 0 mm 4 mps 772 mmHg 87%
    22:00 +5°C° 0 mm 4 mps 772 mmHg 84%
    23:00 +5°C° 0 mm 4 mps 772 mmHg 82%

    8 April, Wednesday

    Time Temperature Precipitation Wind Pressure Humidity
    00:00 +4°C° 0 mm 4 mps 772 mmHg 79%
    01:00 +3°C° 0 mm 5 mps 772 mmHg 81%
    02:00 +3°C° 0 mm 5 mps 772 mmHg 83%
    03:00 +2°C° 0 mm 5 mps 772 mmHg 85%
    04:00 +3°C° 0 mm 4 mps 772 mmHg 84%
    05:00 +3°C° 0 mm 4 mps 772 mmHg 84%
    06:00 +3°C° 0 mm 3 mps 772 mmHg 83%
    07:00 +4°C° 0 mm 3 mps 772 mmHg 79%
    08:00 +5°C° 0 mm 4 mps 771 mmHg 74%
    09:00 +6°C° 0 mm 4 mps 771 mmHg 69%
    10:00 +7°C° 0 mm 4 mps 770 mmHg 66%
    11:00 +8°C° 0 mm 3 mps 770 mmHg 63%
    12:00 +9°C° 0 mm 3 mps 769 mmHg 59%
    13:00 +10°C° 0 mm 3 mps 768 mmHg 58%
    14:00 +10°C° 0 mm 3 mps 767 mmHg 56%
    15:00 +11°C° 0 mm 3 mps 767 mmHg 54%
    16:00 +10°C° 0 mm 2 mps 766 mmHg 56%
    17:00 +10°C° 0 mm 2 mps 766 mmHg 59%
    18:00 +9°C° 0 mm 2 mps 766 mmHg 61%
    19:00 +9°C° 0 mm 2 mps 766 mmHg 65%
    20:00 +9°C° 0 mm 1 mps 766 mmHg 69%
    21:00 +8°C° 0 mm 1 mps 766 mmHg 72%
    22:00 +8°C° 0 mm 1 mps 765 mmHg 75%
    23:00 +7°C° 0 mm 0 mps 765 mmHg 77%

    9 April, Thursday

    Time Temperature Precipitation Wind Pressure Humidity
    00:00 +6°C° 0 mm 0 mps 764 mmHg 79%
    01:00 +6°C° 0 mm 0 mps 764 mmHg 79%
    02:00 +6°C° 0 mm 0 mps 763 mmHg 80%
    03:00 +6°C° 0 mm 0 mps 762 mmHg 80%
    04:00 +6°C° 0 mm 0 mps 762 mmHg 80%
    05:00 +6°C° 0 mm 0 mps 762 mmHg 80%
    06:00 +6°C° 0 mm 0 mps 761 mmHg 79%
    07:00 +8°C° 0 mm 1 mps 761 mmHg 73%
    08:00 +10°C° 0 mm 1 mps 761 mmHg 66%
    09:00 +11°C° 0 mm 1 mps 760 mmHg 59%
    10:00 +12°C° 0 mm 1 mps 760 mmHg 56%
    11:00 +13°C° 0 mm 1 mps 759 mmHg 54%
    12:00 +14°C° 0 mm 1 mps 759 mmHg 51%
    13:00 +14°C° 0 mm 2 mps 759 mmHg 51%
    14:00 +14°C° 0 mm 2 mps 758 mmHg 52%
    15:00 +14°C° 0 mm 2 mps 758 mmHg 52%
    16:00 +14°C° 0 mm 2 mps 758 mmHg 55%
    17:00 +14°C° 0 mm 2 mps 758 mmHg 58%
    18:00 +13°C° 0 mm 2 mps 759 mmHg 61%
    19:00 +12°C° 0.1 mm 3 mps 759 mmHg 67%
    20:00 +11°C° 0.1 mm 3 mps 760 mmHg 72%
    21:00 +11°C° 0.1 mm 3 mps 760 mmHg 78%
    22:00 +10°C° 0.4 mm 3 mps 760 mmHg 81%
    23:00 +10°C° 0.4 mm 3 mps 760 mmHg 85%
    Show more